Weather History for Brookings, OR

Change the Weather History Date:

Saturday, March 23, 2013

  Actual Average Record
Temperature  
Mean Temperature 45 °F -  
Max Temperature 54 °F 57 °F 78 °F (1970)
Min Temperature 36 °F 42 °F 32 °F (1935)
Degree Days  
Heating Degree Days 20    
Moisture  
Dew Point 37 °F    
Average Humidity 71    
Maximum Humidity 100    
Minimum Humidity 50    
Precipitation  
Precipitation 0.00 in - - ()
Sea Level Pressure  
Sea Level Pressure 30.24 in    
Wind  
Wind Speed 5 mph (North)    
Max Wind Speed 12 mph    
Max Gust Speed -    
Visibility 10 miles    
Events Rain    
Averages and records for this station are not official NWS values.
T = Trace of Precipitation, MM = Missing Value Source: NWS Daily Summary

Daily Weather History Graph

Daily Weather History Graph

Search for Another Location

Airport:

Trip Planner

Search our weather history database for the weather conditions in past years. The results will help you decide how hot, cold, wet, or windy it might be!

Date:

Astronomy

Mar. 23, 2013 Rise Set
Actual Time 7:14 AM PDT 7:33 PM PDT
Civil Twilight 6:46 AM PDT 8:01 PM PDT
Nautical Twilight 6:13 AM PDT 8:34 PM PDT
Astronomical Twilight 5:40 AM PDT 9:07 PM PDT
Moon 4:02 PM PDT (3/23) 4:57 AM PDT (3/23)
Length of Visible Light 13h 14m
Length of Day
12h 18m
Waxing Gibbous, 86% of the Moon is Illuminated
Mar 23
Waxing Gibbous
Mar 27
Full
Apr 2
Last Quarter
Apr 10
New
Apr 18
First Quarter

Hourly Weather History & Observations

Time (PDT) Temp. Windchill Dew Point Humidity Pressure Visibility Wind Dir Wind Speed Gust Speed Precip Events Conditions
12:56 AM 43.9 °F 40.5 °F 31.1 °F 61% 30.31 in 10.0 mi Variable 5.8 mph - N/A   Clear
1:56 AM 43.9 °F 40.5 °F 31.1 °F 61% 30.30 in 10.0 mi Variable 5.8 mph - N/A   Clear
2:56 AM 43.9 °F 37.9 °F 31.1 °F 61% 30.30 in 10.0 mi NE 11.5 mph - N/A   Clear
3:56 AM 43.0 °F 38.8 °F 30.0 °F 60% 30.27 in 10.0 mi Variable 6.9 mph - N/A   Clear
4:56 AM 41.9 °F 40.0 °F 30.0 °F 63% 30.27 in 10.0 mi North 3.5 mph - N/A   Clear
5:56 AM 37.9 °F - 34.0 °F 86% 30.27 in 10.0 mi Calm Calm - N/A   Clear
6:56 AM 38.8 °F 36.5 °F 32.9 °F 79% 30.28 in 10.0 mi North 3.5 mph - N/A   Clear
7:56 AM 36.9 °F 34.3 °F 36.0 °F 97% 30.28 in 10.0 mi NE 3.5 mph - N/A   Scattered Clouds
8:56 AM 43.9 °F 42.3 °F 34.0 °F 68% 30.28 in 10.0 mi Variable 3.5 mph - N/A   Clear
9:56 AM 46.9 °F - 36.0 °F 66% 30.28 in 10.0 mi Calm Calm - N/A   Partly Cloudy
10:56 AM 46.9 °F - 32.0 °F 56% 30.27 in 10.0 mi Variable 4.6 mph - N/A   Clear
11:56 AM 50.9 °F - 32.9 °F 50% 30.27 in 10.0 mi Variable 5.8 mph - N/A   Clear
12:56 PM 54.0 °F - 36.9 °F 52% 30.25 in 10.0 mi Variable 5.8 mph - N/A   Partly Cloudy
1:56 PM 54.9 °F - 37.9 °F 53% 30.23 in 10.0 mi Variable 6.9 mph - N/A   Partly Cloudy
2:56 PM 54.9 °F - 41.0 °F 60% 30.22 in 10.0 mi NW 9.2 mph - N/A   Clear
3:56 PM 54.9 °F - 41.0 °F 60% 30.21 in 10.0 mi NW 9.2 mph - N/A   Partly Cloudy
4:56 PM 54.9 °F - 39.9 °F 57% 30.19 in 10.0 mi NW 8.1 mph - N/A   Clear
5:56 PM 54.9 °F - 41.9 °F 62% 30.18 in 10.0 mi NNW 8.1 mph - N/A   Clear
6:56 PM 50.9 °F - 41.9 °F 71% 30.18 in 10.0 mi NW 8.1 mph - N/A   Clear
7:56 PM 48.9 °F - 45.0 °F 86% 30.19 in 10.0 mi SE 3.5 mph - 0.00 in Rain Light Rain
8:56 PM 45.9 °F 44.6 °F 45.9 °F 100% 30.19 in 10.0 mi East 3.5 mph - 0.00 in   Clear
9:56 PM 43.9 °F 42.3 °F 43.9 °F 100% 30.20 in 10.0 mi East 3.5 mph - N/A   Clear
10:56 PM 43.9 °F - 43.9 °F 100% 30.20 in 10.0 mi Calm Calm - N/A   Clear
11:56 PM 43.9 °F 42.3 °F 43.9 °F 100% 30.20 in 10.0 mi Variable 3.5 mph - N/A   Clear